Regional Weather Roundup
Issued by NWS Albany, NY

Current Version | Previous Version | Text Only | Print | Product List | Glossary On
Versions: 1 2 3 4 5 6 7 8 9 10 11 12 13 14 15 16 17 18 19 20 21 22 23 24 25 26 27 28
000
ASUS41 KALY 301210
RWRALY

NEW YORK STATE HOURLY WEATHER ROUNDUP
NATIONAL WEATHER SERVICE ALBANY NY
800 AM EDT FRI SEP 30 2022

NOTE: "FAIR" INDICATES FEW OR NO CLOUDS BELOW 12,000 FEET WITH NO
SIGNIFICANT WEATHER AND/OR NO OBSTRUCTIONS TO VISIBILITY.

NYZ032-033-038>043-046>054-057>066-NYZ062>081-082-084-301300-
EAST


CITY           SKY/WX    TMP DP  RH WIND       PRES   REMARKS
ALBANY         PTSUNNY   43  41  93 CALM      30.41R
GLENS FALLS    SUNNY     38  35  89 CALM      30.41S
POUGHKEEPSIE   PTSUNNY   44  41  89 CALM      30.38R
NEWBURGH       PTSUNNY   46  43  87 VRB6      30.37S
WHITE PLAINS   MOSUNNY   48  39  71 N7        30.34S
ISLIP          PTSUNNY   54  47  77 NE8       30.33S
NEW YORK CITY  PTSUNNY   53  39  59 NE13      30.34S
CENTRAL PARK   CLOUDY    53  40  61 NE8       30.37S
$$

NYZ005>009-017-018-044>046-055-056-301300-
CENTRAL


CITY           SKY/WX    TMP DP  RH WIND       PRES   REMARKS
FULTON         CLEAR     37  35  92 CALM      30.39S
SYRACUSE       PTCLDY    41  38  89 CALM      30.40S
ROME           SUNNY     37  36  96 CALM      30.41S
ELMIRA         FOG       39  39 100 SW3       30.38F VSB 1/4
BINGHAMTON     FOG       36  36 100 NE6       30.35F VSB 1/2 WCI  31
MONTICELLO     PTSUNNY   39  38  96 CALM      30.37R
$$

NYZ026>034-041>043-087-301300-
NORTH


CITY           SKY/WX    TMP DP  RH WIND       PRES   REMARKS
WATERTOWN      CLEAR     37  36  96 E3        30.40R
FORT DRUM      NOT AVBL
OGDENSBURG     FAIR      39  37  93 CALM      30.38S
MASSENA        SUNNY     37  34  89 CALM      30.41S
SARANAC LAKE   SUNNY     30  28  92 CALM      30.37S FOG
PLATTSBURGH    SUNNY     37  35  92 CALM      30.40S
$$

NYZ001>004-010>016-019>021-085-301300-
WEST


CITY           SKY/WX    TMP DP  RH WIND       PRES   REMARKS
NIAGARA FALLS  CLEAR     41  37  86 CALM      30.39R
BUFFALO        PTCLDY    40  37  89 E3        30.39R
DUNKIRK        CLEAR     35  33  92 SE3       30.38S
JAMESTOWN      CLEAR     38  36  92 CALM      30.36S
WELLSVILLE     FOG       34  31  88 CALM      30.37S VSB 1/4
ROCHESTER      PTCLDY    38  38 100 SW3       30.40F
PENN YAN       CLOUDY    43  43 100 SW5       30.39S FOG
$$

             KEY
       WCI = WIND CHILL INDEX
       VSB = VISIBILITY
       HX  = HEAT INDEX
$$



USA.gov is the U.S. government's official web portal to all federal, state and local government web resources and services.